Regional Weather Roundup
Issued by NWS

Home | Current Version | Previous Version | Graphics & Text | Print | Product List | Glossary On
Versions: 1 2 3 4 5 6 7 8 9 10 11 12 13 14 15 16 17 18 19 20 21 22 23 24 25 26 27 28 29 30 31 32 33 34 35 36 37 38 39 40 41 42 43 44 45 46 47 48 49 50
000
ASUS43 KOAX 301410
RWRNE

WEATHER ROUNDUP FOR NEBRASKA
NATIONAL WEATHER SERVICE OMAHA NE
900 AM CDT SAT MAY 30 2015

NOTES: SATELLITE DATA IS BEING USED TO AUGMENT CLOUD COVER ABOVE
       12000 FEET.
       "FAIR" INDICATES FEW OR NO CLOUDS BELOW 12,000 FEET WITH NO
       SIGNIFICANT WEATHER AND/OR OBSTRUCTIONS TO VISIBILITY.

  * THESE STATIONS DO NOT REPORT WEATHER SUCH AS RAIN...SNOW OR FOG.

NEZ001>004-019>022-054>056-301500-
NEBRASKA PANHANDLE

CITY           SKY/WX    TMP DP  RH WIND       PRES   REMARKS
SCOTTSBLUFF    CLOUDY    50  46  86 E10       30.29F
ALLIANCE       CLOUDY    45  43  93 SE7       30.30F
CHADRON        SUNNY     48  42  80 SE8       30.30S
KIMBALL          N/A    N/A N/A N/A MISG        N/A
SIDNEY         CLOUDY    49  43  80 E5        30.31S
$$

NEZ057>060-069>072-079>082-301500-
SOUTHWEST NEBRASKA

CITY           SKY/WX    TMP DP  RH WIND       PRES   REMARKS
NORTH PLATTE   PTSUNNY   48  39  71 N14       30.33R
IMPERIAL       PTSUNNY   49  40  71 NE9       30.34R
LEXINGTON      MOSUNNY   49  42  75 N15G23    30.30S
MCCOOK         SUNNY     50  39  66 N16       30.31F
OGALLALA       SUNNY     48  40  75 NE6       30.34R
$$

NEZ005>010-023>029-035>040-094-301500-
NORTH CENTRAL NEBRASKA

CITY           SKY/WX    TMP DP  RH WIND       PRES   REMARKS
VALENTINE      SUNNY     46  37  71 NE7       30.34S
AINSWORTH      SUNNY     47  38  73 N13       30.33S
BROKEN BOW     SUNNY     49  37  63 N16G22    30.30R
O`NEILL        PTSUNNY   46  40  78 N12G17    30.32R
ORD            MOSUNNY   45  38  76 N15       30.28R
THEDFORD       MOSUNNY   46  40  79 N9        30.34R
$$

NEZ041-046>049-061>064-073>077-083>087-301500-
SOUTH CENTRAL NEBRASKA

CITY           SKY/WX    TMP DP  RH WIND       PRES   REMARKS
GRAND ISLAND   MOSUNNY   51  42  71 N18       30.26R
AURORA         CLOUDY    51  43  75 N18       30.25R
HASTINGS       CLOUDY    50  42  74 N17       30.24R
HEBRON         CLOUDY    52  44  76 N17G23    30.21R
HOLDREGE       SUNNY     49  39  69 N16G23    30.27S
KEARNEY *      MOSUNNY   52  39  62 N22G28    30.27R
YORK           CLOUDY    50  45  81 N18G26    30.23R
$$

NEZ011>018-030>034-042>045-301500-
NORTHEAST NEBRASKA

CITY           SKY/WX    TMP DP  RH WIND       PRES   REMARKS
NORFOLK        PTSUNNY   51  43  74 N14       30.25R
ALBION         MOSUNNY   49  40  71 N14       30.27R
COLUMBUS *     CLOUDY    50  39  66 N17G23    30.25S
FREMONT        CLOUDY    53  45  74 N12       30.21R
TEKAMAH        CLOUDY    53  45  74 N22       30.20R
WAYNE          PTSUNNY   49  44  83 N16       30.25S
$$

NEZ050>053-065>068-078-088>093-301500-
SOUTHEAST NEBRASKA

CITY           SKY/WX    TMP DP  RH WIND       PRES   REMARKS
LINCOLN        LGT RAIN  51  46  83 N18       30.20R
OMAHA EPPLEY   CLOUDY    53  48  83 N16G24    30.16R
BEATRICE       CLOUDY    53  46  79 N15       30.19R
FALLS CITY     CLOUDY    54  49  83 N10       30.13R
NEBRASKA CITY  DRIZZLE   51  51  98 N10       30.16R
PLATTSMOUTH    CLOUDY    52  47  81 N10G17    30.16S
$$

NEZ044-045-051>053-067-301500-
OMAHA AREA

CITY           SKY/WX    TMP DP  RH WIND       PRES   REMARKS
OMAHA EPPLEY   CLOUDY    53  48  83 N16G24    30.16R
FREMONT        CLOUDY    53  45  74 N12       30.21R
MILLARD        CLOUDY    53  46  77 NW8G16    30.18R
OFFUTT AFB     CLOUDY    54  47  78 N10G18    30.16R
PLATTSMOUTH    CLOUDY    52  47  81 N10G17    30.16S
WAHOO          CLOUDY    52  45  76 N16       30.20R
$$



USA.gov is the U.S. government's official web portal to all federal, state and local government web resources and services.